W8AN Weather Reports


Display with metric or nautical units.
time (UTC)temp
F
wind
direction
speed
MPH
gust
MPH
rain 1hr
in
rain 24hr
in
rain mn
in
humidity
%
barometer
mb
20260903020536 81 255 6.0 10.0 0.00 0.00 0.00 80 4268.8
20260903020035 81 204 5.0 7.0 0.00 0.00 0.00 80 4268.6
20260903015531 81 255 5.0 6.0 0.00 0.00 0.00 80 4268.7
20260903015026 81 219 4.0 6.0 0.00 0.00 0.00 80 4268.6
20260903014525 81 219 9.0 10.0 0.00 0.00 0.00 80 4268.6
20260903014020 82 253 5.0 6.0 0.00 0.00 0.00 79 4268.8
20260903013519 82 236 6.0 8.0 0.00 0.00 0.00 79 4268.7
20260903013014 82 228 3.0 5.0 0.00 0.00 0.00 79 4268.4
20260903012514 82 248 0.0 0.0 0.00 0.00 0.00 79 4268.8
20260903012013 82 242 0.0 0.0 0.00 0.00 0.00 78 4268.8
20260903011507 82 245 0.0 0.0 0.00 0.00 0.00 79 4268.5
20260903011002 82 228 0.0 0.0 0.00 0.00 0.00 78 4268.6
20260903010457 82 268 0.0 0.0 0.00 0.00 0.00 78 4268.6
20260903005955 82 254 0.0 0.0 0.00 0.00 0.00 78 4268.6
20260903005450 83 243 0.0 0.0 0.00 0.00 0.00 78 4268.4
20260903004946 83 227 0.0 0.0 0.00 0.00 0.00 77 4268.5
20260903004441 83 267 0.0 0.0 0.00 0.00 0.00 77 4268.4
20260903003937 83 207 0.0 0.0 0.00 0.00 0.00 77 4268.5
20260903003437 83 214 5.0 8.0 0.00 0.00 0.00 76 4268.5
20260903002932 83 219 0.0 0.0 0.00 0.00 0.00 76 4268.2
20260903002427 83 225 0.0 1.0 0.00 0.00 0.00 77 4268.3
20260903001927 84 279 0.0 0.0 0.00 0.00 0.00 76 4268.2
20260903001426 84 232 0.0 0.0 0.00 0.00 0.00 76 4268.4
20260903000926 84 203 4.0 6.0 0.00 0.00 0.00 76 4268.3
20260903000421 84 258 0.0 0.0 0.00 0.00 0.00 75 4268.3
20260902235919 85 209 0.0 0.0 0.00 0.00 0.00 75 4268.5
20260902235414 85 259 0.0 0.0 0.00 0.00 0.00 74 4268.4
20260902234909 86 243 2.0 5.0 0.00 0.00 0.00 73 4268.4
20260902234404 86 228 0.0 0.0 0.00 0.00 0.00 73 4268.3
20260902233903 86 225 0.0 0.0 0.00 0.00 0.00 73 4268.4
20260902233357 87 242 5.0 6.0 0.00 0.00 0.00 72 4268.4
20260902232856 87 249 7.0 8.0 0.00 0.00 0.00 71 4268.3
20260902232351 87 231 3.0 5.0 0.00 0.00 0.00 70 4268.2
20260902231851 88 220 5.0 6.0 0.00 0.00 0.00 69 4268.6
20260902231346 88 206 0.0 0.0 0.00 0.00 0.00 69 4268.1
20260902230841 88 262 6.0 8.0 0.00 0.00 0.00 68 4268.0
20260902230340 89 247 9.0 11.0 0.00 0.00 0.00 67 4268.4
20260902225834 89 242 7.0 10.0 0.00 0.00 0.00 66 4268.4
20260902225329 89 249 10.0 11.0 0.00 0.00 0.00 66 4268.3
20260902224827 89 224 6.0 8.0 0.00 0.00 0.00 66 4268.3
20260902224323 90 233 5.0 7.0 0.00 0.00 0.00 64 4268.5
20260902223819 90 245 6.0 7.0 0.00 0.00 0.00 64 4268.3
20260902223314 90 234 8.0 10.0 0.00 0.00 0.00 63 4268.3
20260902222814 90 267 5.0 6.0 0.00 0.00 0.00 64 4268.4
20260902222313 90 253 10.0 13.0 0.00 0.00 0.00 63 4268.2
20260902221813 90 240 7.0 8.0 0.00 0.00 0.00 62 4268.6
20260902221312 90 227 5.0 6.0 0.00 0.00 0.00 63 4268.6
20260902220808 91 246 5.0 8.0 0.00 0.00 0.00 62 4268.3
20260902220307 91 267 8.0 9.0 0.00 0.00 0.00 62 4268.5
20260902215802 91 261 8.0 11.0 0.00 0.00 0.00 61 4268.4
20260902215258 91 266 5.0 7.0 0.00 0.00 0.00 61 4268.4
20260902214754 91 233 5.0 6.0 0.00 0.00 0.00 60 4268.5
20260902214253 91 268 9.0 10.0 0.00 0.00 0.00 60 4268.5
20260902213748 91 210 10.0 13.0 0.00 0.00 0.00 60 4268.6
20260902213248 91 241 8.0 9.0 0.00 0.00 0.00 60 4268.4
20260902212747 92 218 22.0 25.0 0.00 0.00 0.00 59 4268.4
20260902212244 92 239 11.0 14.0 0.00 0.00 0.00 59 4268.5
20260902211740 92 230 7.0 9.0 0.00 0.00 0.00 60 4268.6
20260902211236 92 242 7.0 9.0 0.00 0.00 0.00 60 4268.5
20260902210736 92 237 10.0 10.0 0.00 0.00 0.00 58 4268.6
20260902210231 92 232 12.0 16.0 0.00 0.00 0.00 60 4268.7
20260902205729 92 240 10.0 11.0 0.00 0.00 0.00 58 4268.7
20260902205224 92 237 3.0 10.0 0.00 0.00 0.00 59 4268.8
20260902204719 92 230 9.0 13.0 0.00 0.00 0.00 59 4268.9
20260902204215 93 252 11.0 14.0 0.00 0.00 0.00 58 4268.7
20260902203709 93 236 12.0 14.0 0.00 0.00 0.00 60 4269.0
20260902203204 92 234 5.0 7.0 0.00 0.00 0.00 59 4268.9
20260902202658 93 212 9.0 11.0 0.00 0.00 0.00 58 4269.1
20260902202155 93 223 5.0 7.0 0.00 0.00 0.00 59 4269.1
20260902201652 93 228 9.0 11.0 0.00 0.00 0.00 56 4269.3
20260902201150 93 245 8.0 9.0 0.00 0.00 0.00 57 4269.2
20260902200645 93 247 11.0 14.0 0.00 0.00 0.00 59 4269.2
20260902200142 93 236 8.0 10.0 0.00 0.00 0.00 59 4269.2
20260902195637 92 238 7.0 10.0 0.00 0.00 0.00 60 4269.4
20260902195136 93 241 9.0 11.0 0.00 0.00 0.00 57 4269.5
20260902194635 92 219 8.0 10.0 0.00 0.00 0.00 58 4269.5
20260902194130 92 220 6.0 9.0 0.00 0.00 0.00 60 4269.5
20260902193626 92 219 10.0 11.0 0.00 0.00 0.00 60 4269.4
20260902193121 92 248 7.0 10.0 0.00 0.00 0.00 58 4269.6
20260902192620 93 241 10.0 11.0 0.00 0.00 0.00 58 4269.3
20260902192119 92 197 8.0 10.0 0.00 0.00 0.00 57 4269.5
20260902191614 93 208 9.0 13.0 0.00 0.00 0.00 59 4269.6
20260902191114 93 220 9.0 11.0 0.00 0.00 0.00 61 4269.8
20260902190609 92 250 5.0 6.0 0.00 0.00 0.00 62 4269.8
20260902190104 92 244 7.0 10.0 0.00 0.00 0.00 59 4269.7
20260902185600 92 235 9.0 11.0 0.00 0.00 0.00 59 4269.9
20260902185056 92 213 8.0 9.0 0.00 0.00 0.00 61 4269.9
20260902184551 92 223 7.0 7.0 0.00 0.00 0.00 61 4269.8
20260902184046 92 214 7.0 9.0 0.00 0.00 0.00 61 4269.8
20260902183542 92 255 12.0 14.0 0.00 0.00 0.00 60 4270.0
20260902183039 92 211 6.0 9.0 0.00 0.00 0.00 64 4270.1
20260902182534 92 272 5.0 6.0 0.00 0.00 0.00 64 4270.1
20260902182031 92 226 8.0 10.0 0.00 0.00 0.00 62 4270.4
20260902181527 91 240 7.0 10.0 0.00 0.00 0.00 62 4270.2
20260902181021 91 256 5.0 7.0 0.00 0.00 0.00 63 4270.2
20260902180520 91 221 6.0 7.0 0.00 0.00 0.00 63 4270.3
20260902180017 91 225 7.0 10.0 0.00 0.00 0.00 62 4270.7
20260902175516 91 267 4.0 5.0 0.00 0.00 0.00 64 4270.4
20260902175013 90 209 6.0 7.0 0.00 0.00 0.00 63 4270.4
20260902174509 91 223 7.0 9.0 0.00 0.00 0.00 61 4270.6
20260902174004 91 228 9.0 11.0 0.00 0.00 0.00 63 4270.6
20260902173503 90 243 0.0 1.0 0.00 0.00 0.00 67 4270.4
20260902172958 90 257 3.0 6.0 0.00 0.00 0.00 64 4270.7
20260902172458 90 211 10.0 14.0 0.00 0.00 0.00 62 4270.8
20260902171953 90 252 5.0 6.0 0.00 0.00 0.00 66 4270.9
20260902171449 90 254 6.0 8.0 0.00 0.00 0.00 66 4270.7
20260902170944 90 242 5.0 6.0 0.00 0.00 0.00 66 4270.7
20260902170439 89 245 6.0 7.0 0.00 0.00 0.00 67 4270.8
20260902165935 89 254 6.0 7.0 0.00 0.00 0.00 67 4270.8
20260902165434 89 225 4.0 6.0 0.00 0.00 0.00 66 4270.8
20260902164928 89 211 6.0 8.0 0.00 0.00 0.00 68 4271.0
20260902164424 89 225 7.0 8.0 0.00 0.00 0.00 67 4271.1
20260902163923 89 263 4.0 5.0 0.00 0.00 0.00 70 4271.2
20260902163418 89 241 5.0 7.0 0.00 0.00 0.00 66 4271.2
20260902162916 89 287 5.0 7.0 0.00 0.00 0.00 70 4271.4
20260902162412 89 239 7.0 8.0 0.00 0.00 0.00 68 4271.4
20260902161911 87 258 0.0 0.0 0.00 0.00 0.00 72 4271.5
20260902161407 87 223 5.0 10.0 0.00 0.00 0.00 71 4271.4
20260902160903 86 252 4.0 7.0 0.00 0.00 0.00 72 4271.4
20260902160358 86 250 5.0 6.0 0.00 0.00 0.00 72 4271.4
20260902155856 87 228 6.0 7.0 0.00 0.00 0.00 71 4271.4
20260902155356 87 224 7.0 8.0 0.00 0.00 0.00 69 4271.1
20260902154850 86 232 0.0 1.0 0.00 0.00 0.00 72 4271.5
20260902154346 86 227 7.0 8.0 0.00 0.00 0.00 72 4271.4
20260902153845 86 236 5.0 5.0 0.00 0.00 0.00 72 4271.6
20260902153344 86 252 9.0 15.0 0.00 0.00 0.00 72 4271.5
20260902152840 85 274 0.0 1.0 0.00 0.00 0.00 74 4271.4
20260902152336 86 248 0.0 0.0 0.00 0.00 0.00 74 4271.5
20260902151831 85 247 3.0 3.0 0.00 0.00 0.00 73 4271.1
20260902151326 85 297 5.0 6.0 0.00 0.00 0.00 73 4271.2
20260902150821 85 238 0.0 1.0 0.00 0.00 0.00 74 4271.2
20260902150318 85 228 6.0 10.0 0.00 0.00 0.00 73 4271.1
20260902145817 85 220 11.0 20.0 0.00 0.00 0.00 73 4271.3
20260902145312 84 262 16.0 18.0 0.00 0.00 0.00 73 4271.3
20260902144808 84 207 9.0 13.0 0.00 0.00 0.00 75 4271.0
20260902144303 84 261 10.0 15.0 0.00 0.00 0.00 75 4271.0
20260902143758 83 271 11.0 13.0 0.00 0.00 0.00 76 4270.8
20260902143253 83 226 10.0 14.0 0.00 0.00 0.00 76 4271.0
20260902142749 83 204 5.0 8.0 0.00 0.00 0.00 77 4271.1
20260902142245 82 236 0.0 0.0 0.00 0.00 0.00 78 4271.0
20260902141744 81 221 1.0 2.0 0.00 0.00 0.00 78 4271.3
20260902141240 81 259 0.0 0.0 0.00 0.00 0.00 79 4270.9
20260902140735 82 242 0.0 0.0 0.00 0.00 0.00 79 4270.9
20260902140230 81 249 0.0 0.0 0.00 0.00 0.00 79 4270.9
20260902135729 81 229 0.0 0.0 0.00 0.00 0.00 79 4271.0
20260902135225 81 237 2.0 7.0 0.00 0.00 0.00 79 4270.9
20260902134724 81 233 2.0 5.0 0.00 0.00 0.00 79 4270.9
20260902134220 81 235 0.0 1.0 0.00 0.00 0.00 80 4270.8
20260902133715 80 254 4.0 5.0 0.00 0.00 0.00 80 4270.9
20260902133214 80 272 1.0 3.0 0.00 0.00 0.00 81 4270.9
20260902132709 79 197 0.0 0.0 0.00 0.00 0.00 81 4270.8
20260902132205 79 259 3.0 5.0 0.00 0.00 0.00 82 4270.9
20260902131700 78 275 0.0 0.0 0.00 0.00 0.00 82 4270.8
20260902131156 78 246 4.0 6.0 0.00 0.00 0.00 83 4270.9
20260902130652 78 274 5.0 10.0 0.00 0.00 0.00 83 4270.9
20260902130147 77 232 9.0 11.0 0.00 0.00 0.00 83 4271.0
20260902125637 77 201 3.0 6.0 0.00 0.00 0.00 84 4270.9
20260902125132 76 256 4.0 5.0 0.00 0.00 0.00 84 4271.0
20260902124629 76 265 5.0 7.0 0.00 0.00 0.00 84 4270.8
20260902124128 76 284 0.0 0.0 0.00 0.00 0.00 85 4270.9
20260902123625 75 234 0.0 0.0 0.00 0.00 0.00 85 4270.9
20260902123124 75 231 0.0 0.0 0.00 0.00 0.00 85 4271.2
20260902122619 75 262 0.0 0.0 0.00 0.00 0.00 85 4271.0
20260902122114 75 260 2.0 3.0 0.00 0.00 0.00 85 4271.1
20260902121609 74 249 1.0 1.0 0.00 0.00 0.00 86 4271.0
20260902121103 74 242 0.0 0.0 0.00 0.00 0.00 86 4270.9
20260902120600 74 272 0.0 0.0 0.00 0.00 0.00 86 4271.3
20260902120056 73 280 0.0 0.0 0.00 0.00 0.00 86 4271.2
20260902115551 73 276 0.0 0.0 0.00 0.00 0.00 86 4271.2
20260902115047 73 275 0.0 0.0 0.00 0.00 0.00 86 4270.8
20260902114543 73 265 0.0 0.0 0.00 0.00 0.00 86 4271.0
20260902114042 73 264 0.0 0.0 0.00 0.00 0.00 86 4270.8
20260902113538 73 267 0.0 0.0 0.00 0.00 0.00 86 4270.9
20260902113033 73 256 0.0 0.0 0.00 0.00 0.00 87 4270.9
20260902112528 73 261 0.0 0.0 0.00 0.00 0.00 87 4270.6
20260902112025 73 239 0.0 0.0 0.00 0.00 0.00 87 4270.8
20260902111521 73 268 0.0 0.0 0.00 0.00 0.00 87 4270.6
20260902111016 73 268 0.0 0.0 0.00 0.00 0.00 87 4270.6
20260902110513 73 269 0.0 0.0 0.00 0.00 0.00 87 4270.8
20260902110008 73 269 0.0 0.0 0.00 0.00 0.00 87 4270.6
20260902105502 73 269 0.0 0.0 0.00 0.00 0.00 87 4270.7
20260902104957 73 269 0.0 0.0 0.00 0.00 0.00 86 4270.7
20260902104452 73 269 0.0 0.0 0.00 0.00 0.00 86 4270.7
20260902103952 73 269 0.0 0.0 0.00 0.00 0.00 86 4270.6
20260902103448 73 269 0.0 0.0 0.00 0.00 0.00 86 4270.7
20260902102943 73 269 0.0 0.0 0.00 0.00 0.00 86 4270.3
20260902102439 73 269 0.0 0.0 0.00 0.00 0.00 86 4270.6
20260902101936 73 269 0.0 0.0 0.00 0.00 0.00 86 4270.7
20260902101430 74 268 0.0 0.0 0.00 0.00 0.00 86 4270.6
20260902100930 74 268 0.0 0.0 0.00 0.00 0.00 86 4270.4
20260902100430 74 267 0.0 0.0 0.00 0.00 0.00 86 4270.7
20260902095924 74 267 0.0 0.0 0.00 0.00 0.00 86 4270.8
20260902095419 74 267 0.0 0.0 0.00 0.00 0.00 86 4270.7
20260902094918 74 236 0.0 0.0 0.00 0.00 0.00 86 4270.2
20260902094414 74 267 0.0 0.0 0.00 0.00 0.00 86 4270.2
20260902093915 74 275 0.0 0.0 0.00 0.00 0.00 86 4270.4
20260902093409 74 263 0.0 0.0 0.00 0.00 0.00 86 4270.4
20260902092908 74 271 0.0 0.0 0.00 0.00 0.00 86 4270.4
20260902092405 75 273 0.0 0.0 0.00 0.00 0.00 86 4270.4
20260902091904 75 272 0.0 0.0 0.00 0.00 0.00 85 4270.3
20260902091400 75 253 0.0 1.0 0.00 0.00 0.00 85 4270.3
20260902090857 75 250 0.0 0.0 0.00 0.00 0.00 85 4270.4
20260902090356 75 275 0.0 0.0 0.00 0.00 0.00 86 4270.7
20260902085855 75 277 0.0 0.0 0.00 0.00 0.00 85 4270.3
20260902085350 75 264 2.0 2.0 0.00 0.00 0.00 85 4270.3
20260902084845 75 231 3.0 5.0 0.00 0.00 0.00 86 4270.4
20260902084336 75 256 0.0 0.0 0.00 0.00 0.00 86 4270.2
20260902083832 75 227 0.0 0.0 0.00 0.00 0.00 86 4270.6
20260902083331 75 245 3.0 5.0 0.00 0.00 0.00 86 4270.4
20260902082827 75 239 0.0 0.0 0.00 0.00 0.00 86 4270.3
20260902082323 75 223 0.0 0.0 0.00 0.00 0.00 86 4270.0
20260902081819 75 224 0.0 0.0 0.00 0.00 0.00 86 4270.1
20260902081314 75 272 1.0 3.0 0.00 0.00 0.00 86 4270.1
20260902080809 75 266 0.0 0.0 0.00 0.00 0.00 86 4270.1
20260902080306 75 204 0.0 0.0 0.00 0.00 0.00 85 4270.0
20260902075805 75 232 0.0 0.0 0.00 0.00 0.00 85 4270.0
20260902075306 75 255 0.0 0.0 0.00 0.00 0.00 86 4270.0
20260902074802 75 280 0.0 0.0 0.00 0.00 0.00 86 4269.9
20260902074257 75 235 0.0 0.0 0.00 0.00 0.00 86 4269.7
20260902073752 75 261 0.0 0.0 0.00 0.00 0.00 86 4269.9
20260902073248 75 247 0.0 0.0 0.00 0.00 0.00 86 4269.8
20260902072744 75 267 0.0 0.0 0.00 0.00 0.00 86 4269.6
20260902072240 75 257 0.0 0.0 0.00 0.00 0.00 86 4269.6
20260902071736 75 245 0.0 0.0 0.00 0.00 0.00 86 4269.8
20260902071231 75 264 0.0 0.0 0.00 0.00 0.00 86 4269.8
20260902070727 75 268 0.0 0.0 0.00 0.00 0.00 86 4269.8
20260902070226 75 258 0.0 0.0 0.00 0.00 0.00 86 4269.9
20260902065726 75 265 0.0 0.0 0.00 0.00 0.00 86 4269.9
20260902065221 75 265 0.0 0.0 0.00 0.00 0.00 86 4269.8
20260902064716 75 265 0.0 0.0 0.00 0.00 0.00 86 4270.0
20260902064212 75 265 0.0 0.0 0.00 0.00 0.00 86 4270.0
20260902063707 75 264 0.0 0.0 0.00 0.00 0.00 86 4269.8
20260902063202 75 264 0.0 0.0 0.00 0.00 0.00 86 4269.8
20260902062701 75 257 0.0 0.0 0.00 0.00 0.00 86 4270.0
20260902062156 75 237 0.0 0.0 0.00 0.00 0.00 86 4270.0
20260902061655 76 244 0.0 0.0 0.00 0.00 0.00 86 4270.2
20260902061151 76 250 0.0 0.0 0.00 0.00 0.00 86 4270.0
20260902060648 75 251 0.0 0.0 0.00 0.00 0.00 86 4270.1
20260902060144 75 253 0.0 0.0 0.00 0.00 0.00 86 4270.2
20260902055639 76 253 0.0 0.0 0.00 0.00 0.00 85 4270.1
20260902055135 76 253 0.0 0.0 0.00 0.00 0.00 85 4270.6
20260902054630 76 238 0.0 0.0 0.00 0.00 0.00 85 4270.1
20260902054126 76 232 0.0 0.0 0.00 0.00 0.00 85 4270.4
20260902053620 76 254 0.0 0.0 0.00 0.00 0.00 85 4270.1
20260902053115 76 253 0.0 0.0 0.00 0.00 0.00 85 4270.4
20260902052615 77 252 0.0 0.0 0.00 0.00 0.00 85 4270.3
20260902052110 77 251 0.0 0.0 0.00 0.00 0.00 85 4270.3
20260902051610 77 245 0.0 0.0 0.00 0.00 0.00 85 4270.6
20260902051109 77 262 0.0 0.0 0.00 0.00 0.00 85 4270.2
20260902050603 77 266 0.0 0.0 0.00 0.00 0.00 85 4270.3
20260902050059 77 252 0.0 0.0 0.00 0.00 0.00 85 4270.3
20260902045555 77 263 0.0 0.0 0.00 0.00 0.00 85 4270.4
20260902045051 77 276 0.0 0.0 0.00 0.00 0.00 85 4270.3
20260902044550 77 278 0.0 0.0 0.00 0.00 0.00 85 4270.2
20260902044046 77 264 0.0 0.0 0.00 0.00 0.00 85 4270.2
20260902043542 77 277 0.0 0.0 0.00 0.00 0.00 85 4270.1
20260902043037 77 280 0.0 0.0 0.00 0.00 0.00 85 4270.0
20260902042536 77 271 0.0 0.0 0.00 0.00 0.00 85 4269.8
20260902042032 77 231 0.0 0.0 0.00 0.00 0.00 85 4269.8
20260902041532 76 244 0.0 0.0 0.00 0.00 0.00 86 4269.8
20260902041027 76 241 0.0 0.0 0.00 0.00 0.00 86 4269.8
20260902040526 76 249 0.0 0.0 0.00 0.00 0.00 86 4269.7
20260902040027 76 231 0.0 0.0 0.00 0.23 0.23 87 4269.7
20260902035520 76 248 0.0 0.0 0.00 0.23 0.23 87 4269.7
20260902035015 76 241 0.0 0.0 0.00 0.23 0.23 87 4269.7
20260902034515 76 263 0.0 0.0 0.00 0.23 0.23 88 4269.8
20260902034014 75 288 0.0 0.0 0.00 0.23 0.23 88 4269.5
20260902033513 74 334 0.0 0.0 0.00 0.23 0.23 88 4269.6
20260902033008 74 334 0.0 0.0 0.00 0.23 0.23 88 4269.5
20260902032502 74 334 0.0 0.0 0.00 0.23 0.23 88 4269.0
20260902031956 74 334 0.0 0.0 0.00 0.23 0.23 87 4269.2
20260902031452 74 334 0.0 0.0 0.00 0.23 0.23 87 4269.2
20260902030948 74 334 0.0 0.0 0.00 0.23 0.23 87 4269.2
20260902030447 75 336 0.0 0.0 0.00 0.23 0.23 87 4269.6
20260902025946 74 336 0.0 0.0 0.00 0.23 0.23 87 4269.6
20260902025442 75 336 0.0 0.0 0.00 0.23 0.23 87 4269.4
20260902024937 76 336 0.0 0.0 0.00 0.23 0.23 87 4269.8
20260902024433 77 336 0.0 0.0 0.00 0.23 0.23 87 4269.9
20260902023927 76 337 0.0 0.0 0.00 0.23 0.23 87 4270.0
20260902023424 76 337 0.0 0.0 0.00 0.23 0.23 87 4269.9
20260902022922 76 336 0.0 0.0 0.00 0.23 0.23 87 4270.1
20260902022417 76 337 0.0 0.0 0.00 0.23 0.23 87 4270.2
20260902021914 75 337 0.0 0.0 0.00 0.23 0.23 87 4270.0
20260902021413 76 337 0.0 0.0 0.00 0.23 0.23 87 4270.0
20260902020909 76 337 0.0 0.0 0.00 0.23 0.23 87 4270.3